[[{"header":{"parameterUnit":"m.s-1","parameterCategory":1,"la1":30.2991,"la2":30.254,"lo1":-89.0895,"lo2":-89.0444,"dy":0.0017,"dx":0.0017,"nx":28,"ny":28,"refTime":"2024-05-21T03:00:00:Z","depth":0,"parameterNumber":2,"parameterNumberName":"U-component_of_WINDS"},"data":[0,0,0,0,0,0,0,0,0,0,0,0,0,0,0,0,0,0,0,0,0,0,0,0,0,0,0,0,0,0,0,0,0,0,0,0,0,0,0,0,0,0,0,0,0,0,0,0,0,0,0,0,0,0,0,0,0,0,-1.6767,-1.6768,0,-1.6797,-1.6798,-1.6798,-1.6783,-1.6782,-1.6781,-1.6781,-1.6812,-1.6814,-1.6815,0,0,0,0,0,0,0,0,0,0,0,0,0,-1.6698,-1.6699,-1.6767,-1.6768,-1.6768,-1.6797,-1.6798,-1.6798,-1.6783,-1.6782,-1.6781,-1.678,-1.6812,-1.6813,-1.6815,0,0,0,0,0,0,0,0,0,0,0,0,0,-1.6728,-1.6699,-1.6767,-1.6764,-1.6764,-1.6797,-1.6798,-1.6798,-1.6783,-1.6782,-1.6781,-1.678,-1.6811,-1.6813,-1.6816,-1.6854,0,0,-1.6823,-1.6824,0,0,0,0,0,0,0,0,-1.6726,-1.673,-1.6764,-1.6764,-1.6764,-1.6785,-1.6785,-1.6817,-1.6784,-1.6776,-1.6781,-1.6779,-1.6804,-1.6807,-1.6815,-1.6855,-1.6857,-1.6823,-1.6824,-1.6825,-1.6826,0,0,0,0,0,0,0,-1.6724,-1.6729,-1.6779,-1.6765,-1.6765,-1.6761,-1.6764,-1.6791,-1.6796,-1.6777,-1.6776,-1.6779,-1.6804,-1.6813,-1.6816,-1.6857,-1.6823,-1.6825,-1.6826,-1.6827,-1.693,-1.6932,0,0,0,0,0,0,-1.6722,-1.6727,-1.6778,-1.678,-1.6742,-1.6764,-1.6767,-1.678,-1.6796,-1.6797,-1.678,-1.6778,-1.681,-1.6813,-1.6817,-1.6863,-1.6825,-1.6828,-1.6829,-1.6929,-1.6931,-1.6932,0,0,0,0,0,0,-1.6721,-1.6727,-1.6777,-1.6754,-1.676,-1.6766,-1.6781,-1.6781,-1.679,-1.6799,-1.68,-1.6788,-1.6809,-1.6814,-1.6845,-1.6864,-1.6829,-1.6831,-1.6928,-1.693,-1.6931,-1.6955,0,0,0,0,0,0,-1.6719,-1.6726,-1.6741,-1.6754,-1.6761,-1.6804,-1.6782,-1.6782,-1.6794,-1.6792,-1.6807,-1.6808,-1.6808,-1.6841,-1.6847,-1.6866,-1.6833,-1.6926,-1.6928,-1.6931,-1.6952,-1.6957,-1.6962,0,0,0,0,0,-1.6716,-1.6746,-1.6741,-1.6748,-1.6779,-1.6805,-1.6809,-1.6809,-1.6796,-1.681,-1.6816,-1.6808,-1.6861,-1.6845,-1.6851,-1.6871,-1.6925,-1.6928,-1.6931,-1.695,-1.6956,-1.6961,0,0,0,0,0,0,-1.6735,-1.6748,-1.6743,-1.6778,-1.6791,-1.6803,-1.6821,-1.6815,-1.6832,-1.6829,-1.6828,-1.6832,-1.6864,-1.6871,-1.6853,-1.6909,-1.6891,-1.6895,-1.6903,-1.6909,-1.6914,-1.6911,-1.6835,0,0,0,0,0,-1.6743,-1.6763,-1.6774,-1.6804,-1.681,-1.6815,-1.6826,-1.6825,-1.6838,-1.6843,-1.6851,-1.6865,-1.6884,-1.6897,-1.6916,-1.6953,-1.6956,-1.6971,-1.6975,-1.6979,-1.6982,-1.7003,-1.7009,-1.6942,-1.6942,-1.6942,0,0,-1.6761,-1.677,-1.6783,-1.6808,-1.6817,-1.6838,-1.6819,-1.6842,-1.6858,-1.6847,-1.6876,-1.6883,-1.6898,-1.6932,-1.6948,-1.6939,-1.7002,-1.6983,-1.6986,-1.6987,-1.7007,-1.7013,-1.7019,-1.6944,-1.6944,-1.6943,0,0,-1.6803,-1.6812,-1.6838,-1.6848,-1.6863,-1.6866,-1.6872,-1.6885,-1.6889,-1.6919,-1.6911,-1.693,-1.6964,-1.6974,-1.6984,-1.7031,-1.7024,-1.7037,-1.7061,-1.7081,-1.7086,-1.7091,-1.7107,-1.7113,-1.7041,-1.7041,-1.7041,0,-1.6822,-1.6853,-1.6852,-1.6875,-1.6887,-1.6878,-1.6904,-1.6914,-1.6934,-1.6942,-1.6932,-1.6975,-1.6984,-1.7021,-1.7032,-1.7041,-1.7048,-1.7035,-1.7086,-1.709,-1.7095,-1.711,-1.7116,-1.7043,-1.7042,-1.7042,-1.7042,0,-1.6876,-1.6898,-1.6917,-1.6937,-1.695,-1.6975,-1.6978,-1.6992,-1.6989,-1.6993,-1.7024,-1.7035,-1.7056,-1.7065,-1.7063,-1.7102,-1.7095,-1.7086,-1.7067,-1.7103,-1.7117,-1.7123,-1.7045,-1.7044,-1.7044,-1.7043,0,0,-1.6931,-1.6949,-1.6956,-1.6965,-1.6981,-1.6998,-1.7023,-1.7043,-1.7055,-1.7069,-1.709,-1.7119,-1.711,-1.7121,-1.712,-1.7138,-1.7174,-1.7126,-1.7126,-1.7134,-1.7217,-1.7224,-1.7231,-1.717,-1.7171,-1.7172,-1.7216,0,-1.6974,-1.7016,-1.7016,-1.7056,-1.7076,-1.7067,-1.7089,-1.7101,-1.7106,-1.7124,-1.7129,-1.7149,-1.7136,-1.7143,-1.716,-1.7166,-1.7191,-1.7163,-1.7189,-1.719,-1.7185,-1.7239,-1.7247,-1.7288,-1.7222,-1.7223,-1.7223,0,-1.7029,-1.7045,-1.7087,-1.7099,-1.7108,-1.7127,-1.7146,-1.7163,-1.7177,-1.7179,-1.7192,-1.7188,-1.7214,-1.7195,-1.723,-1.7211,-1.7222,-1.7226,-1.7228,-1.723,-1.7208,-1.7242,-1.7301,-1.7307,-1.7233,-1.7232,-1.7231,0,-1.7064,-1.7096,-1.7125,-1.7133,-1.7149,-1.7163,-1.717,-1.7183,-1.7195,-1.7211,-1.7219,-1.7238,-1.7249,-1.7264,-1.7266,-1.7252,-1.7301,-1.7282,-1.7303,-1.7303,-1.7314,-1.7313,-1.7375,-1.7321,-1.7321,-1.7321,-1.7321,0,-1.7112,-1.7138,-1.7141,-1.7159,-1.7187,-1.7187,-1.7215,-1.7222,-1.7233,-1.7252,-1.7247,-1.7265,-1.7266,-1.7285,-1.7287,-1.7315,-1.732,-1.7323,-1.7323,-1.7323,-1.7323,-1.733,-1.7327,-1.7323,-1.7322,-1.7322,-1.7322,0,-1.7156,-1.7159,-1.719,-1.7203,-1.7206,-1.7227,-1.7238,-1.7255,-1.7259,-1.7283,-1.7289,-1.7295,-1.7317,-1.7321,-1.7346,-1.7347,-1.7382,-1.7379,-1.7377,-1.7376,-1.7397,-1.7395,-1.7465,-1.7474,-1.7416,-1.7416,-1.7417,0,-1.7186,-1.7205,-1.722,-1.7232,-1.724,-1.7259,-1.7272,-1.7272,-1.7285,-1.7303,-1.7318,-1.7339,-1.7356,-1.7391,-1.7398,-1.7418,-1.7416,-1.7439,-1.7418,-1.7418,-1.7416,-1.7414,-1.7416,-1.7443,-1.7443,-1.7444,-1.7444,0,-1.7239,-1.7239,-1.7257,-1.7275,-1.729,-1.7304,-1.7318,-1.7329,-1.7331,-1.7346,-1.7368,-1.7381,-1.7407,-1.7428,-1.7448,-1.7456,-1.7451,-1.7451,-1.7457,-1.7457,-1.7454,-1.7456,-1.7387,-1.7449,-1.7448,-1.7448,-1.7448,-1.7448,-1.7276,-1.7293,-1.7306,-1.7326,-1.7336,-1.7349,-1.7366,-1.7372,-1.739,-1.7411,-1.741,-1.7434,-1.7448,-1.7474,-1.7483,-1.7502,-1.7495,-1.7503,-1.7505,-1.7508,-1.7509,-1.7452,-1.7506,-1.7506,-1.7506,-1.7505,-1.7505,0,-1.7329,-1.7336,-1.7355,-1.7374,-1.7389,-1.7383,-1.7398,-1.7411,-1.7433,-1.7446,-1.7462,-1.7488,-1.7508,-1.7517,-1.7537,-1.7551,-1.7549,-1.7556,-1.7555,-1.7557,-1.7515,-1.7508,-1.7557,-1.7557,-1.7557,-1.7557,-1.7557,-1.7557,-1.7358,-1.7386,-1.7388,-1.7421,-1.7429,-1.7452,-1.7461,-1.7473,-1.7483,-1.7512,-1.7528,-1.7534,-1.7546,-1.7567,-1.7585,-1.7587,-1.7595,-1.7603,-1.7604,-1.7565,-1.756,-1.7555,-1.7548,-1.7605,-1.7605,-1.7644,-1.7645,-1.7645]},{"header":{"parameterUnit":"m.s-1","parameterCategory":1,"la1":30.2991,"la2":30.254,"lo1":-89.0895,"lo2":-89.0444,"dy":0.0017,"dx":0.0017,"nx":28,"ny":28,"refTime":"2024-05-21T03:00:00:Z","depth":0,"parameterNumber":3,"parameterNumberName":"V-component_of_WINDS"},"data":[0,0,0,0,0,0,0,0,0,0,0,0,0,0,0,0,0,0,0,0,0,0,0,0,0,0,0,0,0,0,0,0,0,0,0,0,0,0,0,0,0,0,0,0,0,0,0,0,0,0,0,0,0,0,0,0,0,0,2.1352,2.1351,0,2.1298,2.1297,2.1297,2.1233,2.1232,2.1231,2.123,2.1172,2.1171,2.1171,0,0,0,0,0,0,0,0,0,0,0,0,0,2.1397,2.1396,2.1352,2.1351,2.135,2.1298,2.1297,2.1297,2.1233,2.1232,2.123,2.1229,2.1172,2.1171,2.1171,0,0,0,0,0,0,0,0,0,0,0,0,0,2.1364,2.1396,2.1352,2.1312,2.1308,2.1298,2.1297,2.1296,2.1233,2.1232,2.123,2.1229,2.1172,2.1172,2.1171,2.1194,0,0,2.1168,2.1167,0,0,0,0,0,0,0,0,2.1366,2.1362,2.1319,2.1315,2.131,2.1271,2.1292,2.1262,2.1233,2.1262,2.123,2.1228,2.1206,2.1202,2.1195,2.1191,2.1189,2.1168,2.1167,2.1167,2.1166,0,0,0,0,0,0,0,2.1368,2.1364,2.133,2.1318,2.1313,2.1297,2.129,2.1286,2.1242,2.1259,2.1254,2.1249,2.1203,2.1196,2.1193,2.1188,2.1168,2.1167,2.1166,2.1166,2.1201,2.1202,0,0,0,0,0,0,2.1376,2.1366,2.1332,2.1329,2.1335,2.1297,2.129,2.1285,2.1242,2.1235,2.125,2.1246,2.1198,2.1194,2.1191,2.1216,2.1167,2.1166,2.1165,2.1199,2.1201,2.1203,0,0,0,0,0,0,2.1378,2.1374,2.1334,2.1346,2.134,2.1298,2.1293,2.1285,2.1277,2.1236,2.1227,2.1251,2.1197,2.1192,2.1194,2.1213,2.1165,2.1164,2.1198,2.12,2.1202,2.1266,0,0,0,0,0,0,2.1379,2.1375,2.1384,2.1347,2.134,2.1339,2.1294,2.1285,2.1276,2.127,2.1234,2.1227,2.1196,2.1196,2.1193,2.1211,2.1164,2.1196,2.1199,2.1201,2.1262,2.127,2.1277,0,0,0,0,0,2.1381,2.1403,2.1385,2.1381,2.135,2.134,2.1336,2.13,2.1278,2.1287,2.126,2.1228,2.1211,2.1197,2.1193,2.1211,2.1194,2.1198,2.1201,2.1258,2.1268,2.1277,0,0,0,0,0,0,2.1443,2.1398,2.1377,2.1388,2.1369,2.133,2.1339,2.1312,2.1298,2.1293,2.1248,2.124,2.1248,2.1229,2.1213,2.1231,2.1198,2.1201,2.1243,2.1252,2.1259,2.1264,2.1163,0,0,0,0,0,2.1458,2.1455,2.1415,2.1429,2.142,2.1382,2.1376,2.135,2.1328,2.1319,2.1293,2.1272,2.1261,2.1256,2.1244,2.1259,2.125,2.1269,2.1277,2.1283,2.1286,2.1292,2.13,2.1214,2.1214,2.1214,0,0,2.1489,2.1464,2.1464,2.1441,2.1423,2.1419,2.1375,2.1374,2.1371,2.1319,2.1319,2.1299,2.1272,2.1281,2.1283,2.1266,2.1308,2.1287,2.1293,2.1292,2.1297,2.1305,2.1312,2.1216,2.1216,2.1215,0,0,2.1543,2.1524,2.1533,2.1517,2.149,2.1465,2.1467,2.1432,2.1417,2.1417,2.1378,2.1374,2.1357,2.134,2.1329,2.1378,2.1348,2.1375,2.1414,2.1421,2.1428,2.1434,2.1451,2.1458,2.1378,2.1378,2.1378,0,2.1584,2.1579,2.1541,2.1543,2.1533,2.1487,2.1496,2.1481,2.1452,2.1447,2.1427,2.1406,2.1385,2.1389,2.1401,2.1394,2.1395,2.1379,2.143,2.1436,2.144,2.1456,2.1463,2.1382,2.1381,2.1381,2.1381,0,2.1631,2.1628,2.1639,2.1613,2.1605,2.161,2.1572,2.1568,2.1543,2.1519,2.152,2.1493,2.1475,2.1474,2.1449,2.1475,2.1464,2.1439,2.1405,2.1453,2.1467,2.1473,2.1387,2.1385,2.1384,2.1384,0,0,2.1723,2.1677,2.1681,2.1669,2.1637,2.1633,2.1636,2.162,2.1617,2.1599,2.16,2.1587,2.1563,2.1551,2.1523,2.153,2.157,2.1502,2.1501,2.1516,2.1596,2.1616,2.1623,2.155,2.1551,2.1552,2.1598,0,2.1771,2.1774,2.1741,2.1753,2.1749,2.1705,2.1708,2.1688,2.1666,2.1659,2.1633,2.1626,2.1594,2.1587,2.1591,2.1564,2.1585,2.156,2.155,2.155,2.1558,2.1631,2.1651,2.1696,2.1603,2.1604,2.1605,0,2.1828,2.1814,2.1826,2.1794,2.1791,2.1794,2.1776,2.177,2.1747,2.173,2.1717,2.1686,2.1686,2.1654,2.1653,2.1637,2.163,2.1616,2.1617,2.1615,2.158,2.163,2.171,2.1717,2.1613,2.1612,2.1612,0,2.1894,2.1878,2.1883,2.1874,2.1836,2.1839,2.1824,2.1799,2.1791,2.1775,2.177,2.1754,2.1745,2.1733,2.1699,2.1679,2.1701,2.1667,2.1687,2.1688,2.1694,2.1694,2.1773,2.169,2.169,2.169,2.169,0,2.1952,2.1961,2.1912,2.1915,2.1924,2.1885,2.1894,2.1874,2.1852,2.185,2.1811,2.181,2.1764,2.1758,2.1731,2.1733,2.173,2.1716,2.1708,2.1719,2.1721,2.1714,2.171,2.1691,2.1691,2.1691,2.169,0,2.2027,2.1995,2.1997,2.1962,2.1953,2.1961,2.193,2.1931,2.1906,2.1904,2.1901,2.1863,2.1853,2.1818,2.1799,2.178,2.1792,2.1778,2.18,2.1796,2.1818,2.1816,2.1896,2.1904,2.1816,2.1817,2.1818,0,2.2066,2.2072,2.2037,2.2034,2.202,2.2014,2.2006,2.1968,2.1962,2.1936,2.194,2.1927,2.1915,2.1901,2.1871,2.1856,2.1841,2.187,2.1839,2.1849,2.1841,2.1842,2.1842,2.1877,2.1878,2.1879,2.188,0,2.2139,2.2122,2.2113,2.2099,2.2091,2.2078,2.2062,2.2061,2.2018,2.2012,2.2003,2.1993,2.1975,2.1962,2.1943,2.1925,2.1896,2.189,2.1894,2.1905,2.1918,2.1911,2.1819,2.1888,2.1887,2.1887,2.1886,2.1886,2.2197,2.22,2.2176,2.2168,2.2152,2.2138,2.2137,2.2113,2.2105,2.2087,2.2065,2.2058,2.2034,2.2005,2.199,2.1983,2.1966,2.1972,2.1973,2.1975,2.1981,2.1919,2.1979,2.1979,2.1978,2.1978,2.1978,0,2.2267,2.225,2.2243,2.2222,2.2215,2.2189,2.217,2.2165,2.216,2.214,2.213,2.2118,2.2106,2.2075,2.206,2.2061,2.2046,2.2058,2.2057,2.2054,2.1996,2.1995,2.207,2.207,2.207,2.207,2.2069,2.2069,2.2304,2.2308,2.2289,2.2285,2.2267,2.2261,2.2253,2.2239,2.2224,2.2213,2.2203,2.2184,2.2159,2.2142,2.213,2.2121,2.2117,2.2133,2.212,2.2067,2.2058,2.2049,2.2048,2.2132,2.2133,2.2177,2.2178,2.2178]}]]